This demonstration page uses our WeatherBlox Daily Observations layout. Learn more.

Left ArrowRight Arrow

44.31136, -96.79839

Hourly Observations for August 21, 2022

Temp ( °F °C ) Dew Point ( °F °C ) Humidity (%) Winds ( mph kmh ) Pressure ( in mb ) Visibility ( mi km ) Precip ( " mm )
12:56 am 00:56 Mostly Clear 58 14.4 N/A N/A Calm 30.14 1021 10 16 0.00 0.00
1:21 am 01:21 Mostly Clear with Mist and Fog 55 13 N/A N/A NW 6 9 30.11 1020 1 1 0.00 0.00
1:34 am 01:34 Mostly Clear with Mist and Fog 57 14 N/A N/A N 3 6 30.11 1020 3 5 0.00 0.00
1:52 am 01:52 Clear with Mist and Fog 57 14 N/A N/A Calm 30.11 1020 3 4 0.00 0.00
1:56 am 01:56 Hazy 56 13.3 N/A N/A Calm 30.14 1021 5 8 0.00 0.00
2:56 am 02:56 Clear 57 13.9 N/A N/A Calm 30.14 1021 9 14 0.00 0.00
3:10 am 03:10 Mostly Clear with Mist and Fog 54 12 N/A N/A WNW 5 7 30.12 1020 1 1 0.00 0.00
3:32 am 03:32 Mostly Cloudy with Mist and Fog 54 12 N/A N/A Calm 30.12 1020 3 4 0.00 0.00
3:39 am 03:39 Cloudy 54 12 N/A N/A Calm 30.12 1020 10 16 0.00 0.00
3:58 am 03:58 Cloudy with Mist and Fog 54 12 N/A N/A WNW 3 6 30.12 1020 2 2 0.00 0.00
4:07 am 04:07 Cloudy with Fog 54 12 N/A N/A NW 3 6 30.12 1020 1 1 0.00 0.00
4:27 am 04:27 Cloudy with Mist and Fog 54 12 N/A N/A Calm 30.12 1020 2 3 0.00 0.00
4:33 am 04:33 Cloudy with Mist and Fog 54 12 N/A N/A Calm 30.12 1020 1 1 0.00 0.00
4:46 am 04:46 Cloudy with Fog 54 12 N/A N/A Calm 30.12 1020 0 0 0.00 0.00
4:56 am 04:56 Cloudy with Fog 53 11.7 N/A N/A Calm 30.15 1021 1 1 0.00 0.00
5:26 am 05:26 Cloudy with Mist and Fog 54 12 N/A N/A Calm 30.12 1020 2 3 0.00 0.00
5:41 am 05:41 Cloudy with Fog 54 12 N/A N/A Calm 30.12 1020 0 0 0.00 0.00
5:56 am 05:56 Cloudy with Fog 53 11.7 N/A N/A Calm 30.14 1021 0 0 0.00 0.00
6:45 am 06:45 Cloudy with Fog 54 12 N/A N/A Calm 30.13 1020 0 0 0.01 0.13
6:56 am 06:56 Cloudy with Fog 54 12.2 N/A N/A Calm 30.16 1021 0 0 0.01 0.13
7:56 am 07:56 Cloudy with Fog 58 14.4 N/A N/A Calm 30.18 1022 0 0 0.00 0.00
8:28 am 08:28 Cloudy with Fog 59 15 59 15 100 100 Calm 30.14 1021 0 0 0.00 0.00
8:56 am 08:56 Cloudy with Fog 60 15.6 60 15.6 100 100 Calm 30.19 1023 0 0 0.00 0.00
9:04 am 09:04 Cloudy with Fog 61 16 61 16 100 100 Calm 30.14 1021 0 0 0.00 0.00
9:25 am 09:25 Cloudy with Fog 63 17 63 17 100 100 Calm 30.14 1021 0 0 0.00 0.00
9:56 am 09:56 Cloudy with Mist and Fog 66 18.9 65 18.3 96 96 Calm 30.20 1023 2 3 0.00 0.00
10:04 am 10:04 Cloudy with Mist and Fog 66 19 64 18 94 94 Calm 30.13 1020 3 5 0.00 0.00
10:15 am 10:15 Cloudy with Mist and Fog 66 19 64 18 94 94 Calm 30.13 1020 2 3 0.00 0.00
10:24 am 10:24 Cloudy with Mist and Fog 68 20 66 19 94 94 Calm 30.13 1020 3 5 0.00 0.00
10:56 am 10:56 Mostly Cloudy 72 22.2 66 18.9 82 82 Calm 30.20 1023 10 16 0.00 0.00
11:07 am 11:07 Mostly Sunny 73 23 66 19 78 78 Calm 30.11 1020 10 16 0.00 0.00
11:56 am 11:56 Sunny 74 23.3 62 16.7 66 66 Calm 30.19 1022 10 16 0.00 0.00
12:56 pm 12:56 Mostly Cloudy 78 25.6 60 15.6 54 54 Calm 30.17 1022 10 16 0.00 0.00
1:56 pm 13:56 Mostly Cloudy 82 27.8 58 14.4 44 44 S 6 9 30.16 1021 10 16 0.00 0.00
2:56 pm 14:56 Partly Cloudy 82 27.8 60 15.6 47 47 VRB 5 7 30.15 1021 10 16 0.00 0.00
3:56 pm 15:56 Mostly Cloudy 83 28.3 62 16.7 49 49 ESE 6 9 30.13 1020 9 14 0.00 0.00
4:56 pm 16:56 Mostly Cloudy 83 28.3 59 15 44 44 SW 3 6 30.12 1020 10 16 0.00 0.00
5:56 pm 17:56 Mostly Cloudy 82 27.8 60 15.6 47 47 Calm 30.12 1020 10 16 0.00 0.00
6:56 pm 18:56 Mostly Sunny 82 27.8 61 16.1 49 49 SE 5 7 30.11 1020 10 16 0.00 0.00
7:56 pm 19:56 Sunny 75 23.9 63 17.2 66 66 SSE 7 11 30.10 1019 10 16 0.00 0.00
8:56 pm 20:56 Clear 70 21.1 63 17.2 78 78 SE 7 11 30.12 1020 10 16 0.00 0.00
9:56 pm 21:56 Clear 68 20 63 17.2 84 84 SSE 7 11 30.13 1020 10 16 0.00 0.00
10:56 pm 22:56 Clear 66 18.9 62 16.7 87 87 SSE 6 9 30.12 1020 10 16 0.00 0.00
11:56 pm 23:56 Clear 65 18.3 62 16.7 90 90 S 8 13 30.12 1020 10 16 0.00 0.00

Powered by AerisWeather